Temp
20 19 19 19 20 20 21 22 22 21 21 21 21 21 20 20 21 22 22 23 22 23 24 23 22 20 17 17 17 17 16 16 16 17 19 19 19 19 19 19 18 18 18 17 16 16 17 17 17 17 17 16 16 16 16 16 17 17 16 16 16 16 16 16 16 16 16 16 16 16 16 16 16 16 16 16 16 17 17 17 17 17 17 17 17 17
19 19 19 20 20 21 21 20 20 20 20 21 21 21 20 20 21 22 22 22 22 23 23 21 19 18 17 17 16 16 16 16 16 16 17 18 19 19 19 19 19 18 17 16 16 16 16 16 16 16 16 16 16 16 16 16 16 16 16 16 16 16 16 16 16 16 16 16 16 16 16 16 16 16 16 16 16 16 16 16 17 17 17 17 17 17
19 18 19 20 18 18 18 17 19 20 20 21 20 21 21 20 21 22 22 21 21 23 23 20 19 17 17 17 16 16 16 16 16 16 15 16 16 17 18 18 19 19 18 17 16 16 15 16 16 16 16 16 16 16 16 16 16 16 16 16 16 15 16 16 16 16 16 16 16 16 16 16 16 16 16 16 16 16 16 16 16 17 17 17 17 17
18 19 20 19 17 18 19 17 19 20 19 20 20 21 21 20 21 21 22 22 21 21 21 20 19 18 17 17 17 16 16 17 17 16 16 16 15 15 15 16 17 18 18 17 16 16 16 16 16 16 16 16 16 15 15 15 15 16 16 15 15 15 15 16 16 16 16 16 16 16 16 16 16 16 15 16 16 16 16 16 16 17 17 17 17 17
19 19 19 18 18 20 20 18 19 20 19 19 20 21 21 21 22 21 21 22 21 20 20 20 20 19 17 16 16 17 17 17 17 17 16 16 16 16 15 15 16 16 17 16 16 16 16 16 16 16 16 16 16 15 15 15 15 15 15 15 15 15 15 16 16 16 16 16 16 16 16 16 16 15 15 16 16 16 16 16 16 17 17 17 17 17
20 18 17 17 18 19 19 19 19 20 20 19 20 21 22 22 22 21 21 22 22 21 20 20 21 19 17 16 16 16 17 17 17 17 16 16 16 16 16 16 16 15 16 16 16 16 16 16 16 16 16 16 16 16 15 15 15 15 16 16 16 16 16 16 16 16 16 16 16 16 16 16 15 15 16 16 16 16 16 16 16 17 17 16 16 16
19 19 19 19 18 18 19 19 18 19 20 20 20 20 22 22 22 21 22 21 21 21 19 19 21 19 17 16 16 16 17 17 17 17 16 16 16 16 16 16 15 15 15 15 15 15 16 16 15 16 15 15 16 16 16 17 16 16 17 17 18 18 18 17 16 16 16 16 16 16 16 15 15 15 15 15 16 16 16 16 16 16 16 16 16 16
19 18 19 19 18 17 18 19 18 18 20 20 20 20 21 22 21 21 22 21 21 21 20 19 20 20 18 16 16 16 17 17 17 16 16 16 16 16 15 15 15 15 14 14 14 14 14 15 15 15 14 15 16 16 17 17 17 17 18 18 19 19 18 16 16 16 16 16 16 16 15 15 15 15 15 15 15 16 16 16 16 16 16 15 16 16
19 19 19 19 18 18 18 20 19 18 20 21 19 19 21 21 21 21 21 21 20 20 21 20 20 20 18 16 16 16 17 17 16 16 16 16 16 15 15 15 14 14 14 13 13 13 13 13 14 14 14 14 15 15 16 16 16 17 17 18 19 19 18 17 17 16 16 16 16 16 15 15 16 16 16 16 15 15 16 16 16 16 15 15 15 15
19 20 20 19 19 19 20 20 18 19 21 20 19 19 20 20 19 20 21 21 20 20 21 20 19 20 18 15 15 16 16 16 16 16 15 15 15 15 14 14 14 13 13 13 12 12 12 12 12 13 13 14 14 15 15 16 15 15 16 17 18 18 17 17 17 16 16 16 16 16 16 17 18 17 17 16 15 15 15 15 15 15 15 15 14 15
20 20 19 20 21 21 21 19 18 19 21 20 20 20 20 20 19 19 19 20 20 20 21 19 18 20 19 16 16 16 16 16 16 16 15 15 15 14 14 14 13 13 12 12 12 12 12 12 12 12 12 12 13 14 14 15 14 15 15 16 16 16 16 16 16 16 16 16 16 16 16 18 18 17 17 16 15 15 15 15 15 15 15 15 15 14
19 20 20 21 21 21 21 19 18 19 20 20 22 21 20 20 20 20 20 20 20 20 19 17 17 20 20 17 16 16 16 16 16 15 15 14 14 14 14 13 13 12 12 11 11 11 11 11 11 11 11 11 11 12 12 13 13 14 14 15 15 16 16 16 16 16 16 15 15 16 16 16 17 16 17 16 15 15 15 15 15 15 15 15 15 14
19 20 20 21 21 21 21 20 18 19 20 21 21 21 20 20 19 20 19 19 20 20 18 16 17 19 18 16 16 16 16 15 15 14 14 14 13 13 13 13 12 12 11 11 10 10 10 10 10 10 10 10 10 10 11 11 12 12 13 14 14 15 15 16 16 16 15 15 15 16 16 16 17 17 17 16 15 15 15 15 15 15 15 15 15 15
19 20 20 20 21 22 22 21 19 19 19 20 21 20 20 19 19 19 17 17 19 19 17 16 18 18 16 16 16 15 15 15 14 14 13 13 13 12 12 12 12 11 11 10 10 10 10 10 10 10 10 10 10 10 10 10 11 11 12 13 13 14 14 15 15 15 16 15 16 16 16 16 17 17 16 16 15 15 15 14 15 15 15 15 15 15
19 19 20 21 21 21 21 21 21 20 19 20 20 20 21 20 20 19 18 19 19 19 17 17 18 18 16 16 15 15 15 14 14 13 13 12 12 12 11 11 11 10 10 10 10 10 10 10 9 9 9 9 9 9 9 10 10 10 11 12 12 13 14 14 14 15 16 16 16 16 16 16 16 16 16 15 15 15 15 15 15 15 15 15 15 15
19 20 21 21 20 21 22 21 21 20 19 19 19 20 20 21 21 19 17 18 18 18 17 16 16 16 15 15 15 15 15 14 14 13 12 12 12 11 11 10 10 10 10 10 10 9 10 9 9 9 9 9 9 9 9 9 9 10 10 11 12 13 13 14 14 14 15 16 16 15 15 15 15 15 15 15 15 15 15 15 15 14 15 14 14 15
19 20 21 20 20 21 21 21 21 21 21 19 19 20 20 20 21 19 16 15 17 18 16 14 15 15 15 15 15 14 14 13 13 12 12 11 11 11 11 10 10 10 10 10 9 9 9 9 9 9 9 9 8 8 8 8 9 9 9 10 11 12 13 13 14 14 14 15 15 15 14 14 14 14 14 14 14 15 15 15 15 15 15 15 14 14
19 20 20 20 21 21 20 21 22 21 21 20 20 20 19 19 20 20 18 17 18 18 15 14 15 15 15 15 15 14 14 13 12 12 11 11 11 11 10 10 10 10 10 9 9 9 9 9 9 9 8 8 8 8 8 8 8 8 8 9 10 10 11 12 13 13 14 14 14 14 14 14 14 14 14 14 14 14 15 15 15 15 15 15 14 14
18 20 20 19 20 20 20 22 22 20 20 21 21 20 19 20 20 19 19 19 18 16 14 14 15 15 15 15 15 15 14 13 12 11 11 11 10 10 10 10 10 9 9 9 9 9 9 9 9 8 8 8 8 8 7 7 8 8 8 8 9 9 10 11 13 13 13 14 14 14 14 14 14 14 14 14 14 14 14 15 15 15 15 15 14 14
18 19 20 19 19 19 19 20 21 21 20 20 20 19 19 20 20 19 19 19 19 16 14 15 15 15 15 15 15 15 13 12 12 11 11 10 10 10 10 9 9 9 9 8 8 9 9 9 8 8 8 8 7 7 7 7 7 7 7 8 8 9 10 11 12 13 13 14 14 14 14 14 14 14 14 14 14 14 14 15 15 15 15 15 14 14
18 19 20 19 18 18 18 18 18 19 20 20 20 20 20 19 19 19 18 17 18 17 15 14 15 15 15 14 14 14 13 12 12 11 10 10 10 10 9 9 9 9 8 8 8 8 8 8 8 8 8 7 7 7 7 7 6 6 7 7 7 7 8 9 10 11 13 14 14 14 14 14 14 14 14 14 14 14 14 14 15 15 15 15 15 14
19 19 18 18 17 17 17 16 16 16 18 20 20 20 19 19 19 20 18 16 16 17 15 15 15 15 13 13 13 13 12 12 11 10 10 9 9 9 9 9 9 8 8 8 8 8 8 8 7 7 7 7 7 7 6 6 6 6 6 6 6 7 7 7 8 9 11 12 13 13 14 14 14 14 14 14 14 14 14 14 14 15 15 15 15 15
18 18 17 16 16 16 16 17 16 15 16 17 18 16 17 18 20 21 20 17 16 15 15 15 15 14 12 12 12 12 11 11 10 10 10 9 9 9 9 9 8 8 8 8 8 8 8 7 7 7 7 7 6 6 6 6 6 6 6 6 6 6 7 7 7 8 9 11 12 13 13 14 14 14 14 14 14 14 14 14 14 14 15 15 15 15
17 17 16 16 17 17 18 17 17 16 16 17 16 14 15 17 18 19 19 18 17 15 15 16 16 13 12 11 11 11 10 10 10 10 9 9 9 9 8 8 8 8 8 8 8 8 7 7 7 6 6 6 6 6 6 6 6 6 6 6 6 6 6 7 7 8 9 10 11 12 13 13 14 14 15 15 15 15 14 14 14 15 15 15 14 15
19 17 17 17 16 17 18 18 18 18 16 16 14 13 13 15 16 17 17 18 18 15 15 18 16 12 12 11 10 11 10 9 9 9 9 9 8 8 8 8 8 7 7 7 7 7 7 6 6 6 6 6 6 6 6 6 6 5 5 5 5 6 6 6 7 7 8 9 11 11 12 12 13 14 14 15 15 15 14 14 15 15 15 14 14 15
18 16 16 18 17 17 17 17 18 17 16 14 13 13 13 14 16 18 18 19 19 14 13 16 14 11 11 11 10 10 10 9 9 8 8 8 8 8 8 7 7 7 7 7 7 7 6 6 6 6 6 6 6 6 6 6 6 6 6 5 5 5 6 6 6 7 7 8 10 11 11 11 12 12 13 14 15 15 14 14 14 14 15 14 14 14
16 13 13 16 17 17 17 16 14 14 15 15 13 13 12 11 13 17 19 20 18 13 12 14 13 11 11 10 10 10 9 9 8 8 8 8 7 7 7 7 7 7 7 7 6 6 6 6 5 5 6 6 6 6 6 6 6 6 6 6 6 6 6 6 6 6 6 7 8 9 10 11 11 11 12 13 14 14 14 14 14 14 14 14 14 14
16 13 12 12 13 13 13 12 12 12 13 13 12 12 11 11 13 17 18 16 15 15 15 13 12 12 11 10 9 9 9 8 8 7 7 7 7 7 7 7 7 6 6 6 6 6 5 5 5 5 6 6 6 6 6 6 6 6 6 6 6 6 6 6 6 6 6 6 6 7 8 9 10 11 11 12 13 14 14 14 14 14 14 14 14 14
15 13 12 12 11 11 11 11 11 11 11 11 11 11 11 11 13 14 13 11 12 16 16 12 11 11 10 9 9 8 8 7 7 7 7 7 7 7 6 6 6 6 6 6 5 5 5 5 5 5 5 6 6 6 6 6 6 6 6 6 6 6 6 6 6 6 6 6 6 6 7 8 9 10 11 12 12 13 14 14 14 14 14 14 14 14
14 12 12 12 11 11 11 11 11 11 11 11 11 11 11 11 11 11 11 10 11 13 13 11 10 10 9 8 8 7 7 7 7 7 6 6 6 6 6 6 6 6 6 5 5 5 5 5 5 5 5 5 6 6 6 6 6 6 6 6 6 6 6 6 6 6 6 6 6 6 6 7 8 9 10 11 11 12 13 14 14 13 14 13 14 14
14 13 13 12 11 11 11 11 11 11 11 10 10 10 10 11 11 10 10 10 10 10 10 9 9 8 8 7 7 7 7 6 6 6 6 6 6 6 6 6 6 6 6 5 5 5 5 5 5 5 5 5 6 6 6 6 6 6 6 6 6 6 6 6 6 6 6 6 6 6 6 6 7 8 10 10 11 12 12 13 14 13 13 13 13 14
14 13 12 13 12 11 11 11 11 11 11 11 10 10 10 10 10 10 10 10 10 10 9 9 9 8 7 7 6 6 6 6 6 5 5 6 6 6 5 5 5 6 5 5 5 5 5 4 4 5 5 5 6 6 6 6 6 6 6 6 6 6 6 6 6 6 6 6 6 6 6 6 6 7 8 10 11 11 12 13 13 13 13 13 13 14
13 13 12 13 13 12 11 11 11 12 14 12 10 9 10 10 10 10 9 10 10 10 10 10 9 7 7 6 6 5 5 5 5 5 5 5 5 6 5 5 5 6 5 5 5 5 5 4 5 5 5 6 6 6 6 6 6 6 6 6 6 7 7 6 6 6 6 6 6 6 6 6 6 6 7 8 10 11 12 13 13 13 13 13 14 14
12 13 12 12 12 12 11 11 12 13 14 12 9 9 10 9 9 9 9 8 9 9 9 9 8 7 6 6 6 5 5 5 5 5 5 5 5 5 5 5 5 5 5 5 5 5 5 5 5 6 6 6 6 7 7 7 7 7 7 7 7 7 7 7 7 6 6 6 6 5 5 6 6 6 7 7 8 10 11 12 13 13 13 13 13 14
13 13 12 12 12 12 11 12 13 13 11 9 9 9 9 9 8 8 8 8 8 8 7 7 7 6 6 6 5 5 5 5 5 5 5 5 5 5 5 5 5 5 5 5 5 5 5 5 6 6 6 6 7 7 7 7 7 7 7 7 7 7 7 7 7 7 6 6 6 5 5 6 6 6 6 7 8 8 9 10 11 12 13 13 13 13
13 13 12 11 11 12 12 12 12 11 9 8 9 9 9 9 9 9 8 8 8 7 7 7 6 6 5 5 5 5 5 5 5 5 5 5 5 5 5 5 5 5 5 4 5 5 5 6 6 6 7 7 7 7 8 7 8 8 8 8 7 7 7 7 6 6 6 6 6 5 5 5 5 6 6 6 7 7 7 8 8 9 10 11 12 12
13 13 12 11 11 11 11 11 10 9 9 9 9 9 9 9 9 9 9 8 7 7 7 6 5 5 5 5 5 5 5 6 5 5 5 5 5 5 5 5 5 5 5 5 5 6 6 7 7 7 7 7 7 8 8 8 8 8 8 8 7 7 7 6 6 6 6 6 6 6 6 5 5 5 5 5 6 6 6 6 6 6 7 8 9 10
13 14 14 13 11 10 10 10 9 10 10 10 9 9 9 9 8 9 9 8 7 7 7 6 5 5 5 5 5 5 6 6 5 4 5 5 5 5 5 5 5 5 5 6 6 6 7 7 7 7 8 8 8 8 8 8 8 8 8 7 7 7 6 6 5 6 6 6 6 6 6 5 5 5 5 5 5 5 6 6 5 5 5 5 6 6
12 11 13 12 11 11 11 10 9 10 10 9 8 8 9 8 8 9 10 9 7 7 7 6 5 5 5 5 5 5 6 7 5 4 5 5 5 5 5 5 5 6 6 6 6 7 7 7 8 8 8 8 8 8 8 8 8 8 7 7 7 7 6 6 5 6 6 6 7 7 7 6 5 5 5 5 5 5 5 6 5 5 5 4 4 4
12 11 11 12 11 10 10 9 9 9 9 8 8 8 8 8 8 10 11 9 7 6 7 6 6 6 6 6 6 6 6 6 5 4 5 5 5 5 5 5 5 6 6 7 7 7 7 8 8 8 8 8 8 8 8 8 8 8 7 7 7 7 6 6 6 7 7 7 7 7 7 7 6 5 5 5 5 5 5 5 6 6 5 4 4 4
10 10 10 10 10 9 9 8 8 8 8 8 8 8 8 8 9 10 11 8 6 6 7 7 6 6 6 6 6 5 5 5 5 4 4 5 5 5 5 6 6 6 7 7 7 7 8 8 8 7 8 8 8 8 8 8 8 7 7 7 7 7 7 7 7 8 7 7 7 7 7 7 6 6 5 5 6 6 5 5 5 6 6 6 5 4
10 9 9 9 9 8 7 8 9 9 8 7 7 7 8 9 10 9 8 6 5 6 7 7 6 6 6 5 5 4 4 4 5 5 5 5 5 5 6 6 6 7 7 7 7 7 7 7 8 8 8 8 8 8 8 8 7 7 7 7 7 7 8 8 8 8 8 7 7 7 7 7 7 6 6 6 6 6 6 5 5 5 6 7 7 6
9 9 8 7 7 7 8 9 10 10 7 5 6 8 9 9 9 7 5 5 5 6 6 6 5 5 5 4 4 4 4 4 5 5 5 5 5 5 6 6 6 6 7 7 7 7 7 7 8 8 8 8 8 8 8 8 7 7 7 7 7 8 8 8 8 8 8 7 6 6 6 6 6 6 6 6 6 6 6 6 6 5 5 6 7 7
7 8 8 6 6 8 10 9 9 8 6 5 6 8 7 7 6 5 5 5 5 5 5 5 5 5 5 4 4 4 4 4 5 5 5 5 5 5 6 6 6 6 7 7 7 7 7 7 7 8 8 8 8 8 8 7 7 7 7 6 7 8 8 8 8 8 8 7 7 6 6 6 6 6 6 6 6 6 5 5 6 5 5 5 5 5
7 7 8 6 6 7 8 7 6 5 5 5 6 6 5 5 5 5 5 4 4 4 5 4 4 5 5 5 4 4 4 4 5 5 5 5 5 5 6 6 6 7 7 7 7 7 7 7 7 8 8 8 8 8 8 7 7 7 7 7 8 8 8 8 8 8 7 7 7 6 6 6 5 5 5 5 5 5 5 5 5 5 5 5 5 4
6 7 7 6 6 6 6 6 5 5 5 5 5 5 5 5 5 5 4 4 4 4 5 4 4 5 5 5 5 4 4 5 5 5 5 5 5 6 6 6 6 7 6 6 6 7 7 8 8 8 8 8 8 8 8 8 7 7 7 7 8 8 8 8 8 7 7 7 7 7 7 6 5 5 5 5 5 5 4 4 4 4 4 4 3 3
7 7 7 6 6 6 6 6 5 5 5 5 4 4 4 4 4 4 4 4 4 5 5 5 5 5 5 5 5 5 5 5 5 5 5 4 5 5 6 6 6 6 6 6 6 6 7 8 8 8 8 8 8 8 8 8 7 7 7 7 8 8 8 8 8 7 7 7 7 7 7 6 6 5 5 5 5 5 4 4 4 4 3 3 3 3
7 7 7 6 6 6 6 5 5 5 5 5 5 4 4 4 4 4 4 4 4 5 5 5 5 5 5 5 5 5 5 5 5 6 5 4 5 5 6 6 6 6 7 7 7 7 7 7 7 7 7 8 8 8 8 8 7 7 7 7 8 8 8 8 8 7 7 7 7 7 7 6 6 5 5 5 5 5 4 4 4 4 4 3 3 3
8 7 7 6 6 6 6 5 5 5 5 5 4 4 4 4 3 4 4 4 4 5 4 4 5 5 5 4 4 4 5 5 4 4 5 4 5 6 6 6 6 6 7 7 7 7 7 7 7 7 7 7 8 8 8 7 7 8 7 7 7 7 8 8 8 7 7 7 7 6 6 6 6 6 5 5 4 4 4 4 4 4 4 4 4 4
7 6 6 6 6 6 6 5 6 6 5 5 4 4 4 4 4 4 4 4 4 4 4 4 4 4 4 5 4 4 5 4 3 4 5 5 5 6 6 6 7 7 7 7 7 7 7 7 7 7 7 7 8 8 8 8 7 8 7 7 7 7 7 7 7 7 7 7 7 7 6 6 6 6 6 5 4 4 4 4 4 4 4 4 4 4
7 6 6 7 6 6 6 6 6 6 5 4 4 4 4 4 4 4 5 5 4 4 4 4 5 5 4 4 5 5 5 4 4 5 5 6 6 6 7 7 7 7 7 7 7 7 7 7 7 7 7 8 8 8 8 8 8 8 7 7 7 7 7 7 7 7 7 7 7 7 6 6 6 6 6 6 5 5 4 4 4 4 4 4 4 4
Height
761 770 776 775 775 773 770 771 772 775 777 778 782 784 788 789 784 780 775 770 769 771 771 775 782 790 797 797 793 789 784 784 785 783 781 779 780 782 783 782 782 782 781 780 780 781 781 781 783 784 786 787 787 788 788 789 790 791 793 794 795 796 797 798 798 799 800 802 803 803 803 803 804 805 806 807 809 811 813 814 816 819 820 821 822 823
763 773 776 770 769 768 769 774 774 776 778 779 782 784 787 790 782 776 775 772 770 770 774 780 789 798 801 799 797 791 787 791 791 790 789 785 782 782 781 782 782 782 781 781 780 780 781 783 785 786 787 787 787 788 790 792 793 793 795 797 799 800 801 802 803 803 802 803 803 803 804 804 805 805 806 807 808 811 813 814 815 817 818 820 821 821
769 775 771 767 771 772 775 779 777 777 779 780 784 784 785 787 783 777 774 774 771 769 774 784 793 801 802 799 798 795 794 796 794 794 793 790 788 787 785 783 782 782 781 781 781 782 783 784 787 788 789 790 790 792 794 796 797 798 800 802 804 806 807 807 807 807 806 805 805 805 806 806 807 807 807 808 810 811 813 814 814 815 817 818 819 820
775 772 765 767 774 772 776 780 777 778 781 782 783 784 785 786 783 779 775 773 774 775 779 785 793 801 803 800 798 797 796 794 794 795 794 792 792 792 791 788 786 784 783 783 783 785 786 788 790 791 792 794 795 797 799 799 800 801 803 805 808 810 811 811 811 810 809 808 808 808 808 809 809 809 809 810 811 812 813 813 813 814 816 817 817 818
768 765 762 768 771 768 773 780 779 778 782 784 783 781 782 781 779 780 778 774 775 780 783 782 790 803 806 806 805 799 795 794 795 796 794 792 793 793 792 791 790 789 788 788 788 789 791 792 793 794 795 796 797 799 800 801 802 804 806 808 809 811 812 812 812 812 811 810 810 810 810 810 811 810 811 812 812 812 812 811 812 813 814 815 815 817
763 763 764 769 771 770 772 777 778 777 780 783 781 777 776 775 776 779 779 778 778 782 784 781 793 812 813 812 813 805 800 800 799 798 797 795 795 794 794 794 793 793 791 791 791 792 793 794 795 795 796 797 797 798 799 800 800 801 804 805 806 808 809 810 809 809 809 809 810 810 811 811 811 810 810 811 812 812 812 810 811 811 812 813 813 814
760 761 761 766 772 773 772 775 777 776 781 783 777 772 772 773 777 778 778 781 782 783 786 784 791 811 817 815 817 811 806 807 804 801 800 798 798 798 798 798 796 796 795 794 794 794 795 795 796 796 797 798 798 799 798 798 798 798 799 800 800 801 802 804 804 805 806 807 808 810 811 811 811 812 812 812 812 812 812 811 810 810 810 811 811 812
758 761 763 765 771 776 776 775 775 775 779 780 773 771 772 773 777 778 778 781 782 780 784 786 787 800 816 819 818 814 810 810 809 806 804 802 802 802 802 802 801 800 800 799 799 799 798 798 798 799 799 799 799 799 799 798 798 797 796 796 797 798 798 800 801 802 804 805 808 809 810 810 810 812 813 812 812 811 811 811 810 809 810 810 810 811
755 759 762 763 769 776 773 767 769 772 773 772 771 772 771 771 774 776 778 781 784 784 782 785 787 796 815 823 818 815 814 813 812 810 808 807 807 807 806 806 805 805 805 805 805 804 803 803 802 802 801 801 800 800 799 798 797 797 796 794 795 796 796 797 798 799 802 805 807 808 808 808 805 805 806 807 808 809 810 810 809 808 809 810 811 810
753 753 754 758 765 767 761 759 764 767 766 766 769 773 771 776 780 780 782 780 785 791 784 785 791 796 813 825 820 817 818 817 815 812 810 811 810 810 811 810 810 810 810 809 809 808 807 807 806 804 803 802 801 800 800 799 798 798 798 796 795 796 795 795 795 797 800 804 806 806 804 800 796 798 802 803 804 806 807 807 807 806 807 808 810 810
751 749 750 753 755 754 753 759 764 761 760 762 765 770 773 779 781 783 788 783 788 797 789 792 798 793 805 822 821 819 819 817 816 814 814 813 814 814 814 815 815 815 814 814 813 811 811 809 807 805 804 803 802 801 801 801 801 800 800 800 798 796 795 794 795 796 798 800 801 800 798 795 793 796 799 799 801 802 803 804 805 805 805 805 806 807
752 752 752 746 745 749 752 760 764 759 760 761 762 768 776 784 785 787 791 789 796 802 796 802 804 794 805 820 820 818 817 816 817 818 818 818 818 818 817 818 819 819 819 817 815 814 813 811 809 807 806 806 805 803 802 801 801 801 801 801 800 798 797 795 795 796 796 797 797 796 796 796 795 795 795 796 797 799 799 801 803 803 803 803 803 805
756 751 749 745 743 746 750 761 768 765 763 763 765 771 781 793 796 798 802 801 802 800 801 809 805 802 814 819 817 817 817 818 819 820 821 821 821 820 820 821 821 821 821 820 820 818 816 814 812 811 810 809 808 806 805 803 802 802 802 802 801 800 799 797 795 794 794 794 794 793 793 793 792 790 790 791 793 795 796 798 800 800 801 801 800 801
759 754 749 748 746 741 745 758 767 770 767 765 768 772 782 795 803 809 817 817 808 801 806 810 803 809 822 818 815 818 818 819 820 822 823 823 823 823 823 824 823 823 823 823 823 822 820 818 816 814 813 812 811 809 808 806 805 804 802 802 801 800 798 797 795 794 791 791 791 790 789 789 788 787 786 787 788 790 792 794 796 797 797 798 798 798
763 762 749 745 745 739 742 747 751 759 765 765 765 767 774 781 790 802 809 806 805 805 808 808 807 816 825 821 817 816 817 820 822 824 825 825 826 826 826 826 825 825 825 825 825 824 823 821 819 817 815 814 813 812 810 809 807 805 803 802 800 798 797 796 795 792 789 788 788 787 786 786 785 785 785 786 786 786 787 789 792 794 794 795 795 797
764 760 741 738 741 738 739 740 741 751 763 769 766 766 770 766 770 793 805 801 803 809 815 818 820 823 823 821 819 817 819 823 824 826 826 826 827 827 827 828 827 828 828 827 827 826 824 823 821 820 818 816 815 813 812 810 809 807 805 803 800 798 797 795 794 792 789 788 787 787 787 786 786 786 787 786 785 784 785 786 788 791 792 793 793 795
763 755 740 738 739 737 739 738 739 744 755 767 768 765 768 763 763 785 808 812 806 808 824 832 828 825 824 822 820 821 823 826 827 827 826 827 827 828 829 830 829 830 830 830 829 828 827 825 823 821 820 819 817 815 814 812 810 809 806 804 801 799 797 795 793 791 789 788 787 787 787 788 788 788 788 787 785 784 784 784 785 788 789 791 792 793
756 752 745 742 739 738 737 735 738 740 744 759 764 760 764 768 767 775 795 810 808 812 829 834 827 825 827 825 822 822 826 828 829 829 829 830 829 830 832 832 832 833 833 833 832 830 829 826 824 823 821 820 819 818 816 813 811 809 806 804 802 799 797 795 793 791 790 788 787 787 787 787 786 786 787 787 786 785 783 782 784 786 787 789 790 791
751 751 748 746 745 742 738 736 743 746 743 746 750 753 760 768 774 778 789 800 806 821 834 832 829 828 826 825 822 823 827 829 831 834 834 834 834 834 836 835 836 836 835 835 834 832 831 828 825 824 822 821 820 819 817 814 812 808 806 804 802 800 798 795 793 791 789 788 787 786 786 785 783 783 785 786 786 786 783 782 783 784 786 787 789 791
750 753 752 748 746 745 744 746 751 753 750 747 749 756 760 764 771 777 786 789 795 819 835 832 831 828 822 822 821 822 828 830 833 837 837 837 838 838 839 839 839 838 838 837 836 834 832 829 827 825 824 823 821 820 818 815 812 809 806 804 802 800 798 795 793 791 789 787 786 785 784 783 782 782 783 784 786 786 785 783 783 783 785 786 788 789
747 753 755 751 750 752 756 760 761 758 754 753 756 760 763 768 773 776 787 792 792 809 829 833 832 827 822 822 820 822 829 831 835 838 838 838 839 840 841 841 841 841 840 839 837 836 834 832 830 828 827 826 823 821 819 815 813 810 807 805 802 801 799 796 793 791 789 786 784 783 782 782 782 781 782 783 783 782 783 784 783 783 784 785 786 788
745 750 758 761 762 765 766 764 765 763 758 755 756 760 765 770 772 776 791 802 798 802 817 824 825 827 826 825 823 825 830 833 837 838 839 840 840 842 843 842 843 843 841 841 839 838 837 835 833 831 828 827 824 821 819 816 814 810 807 805 803 801 800 797 795 792 789 787 784 782 781 781 781 781 782 782 781 780 781 784 784 784 784 783 784 785
745 752 763 770 770 770 767 762 762 764 763 760 762 770 773 768 765 769 782 796 801 806 812 814 819 827 830 829 828 829 832 835 838 838 839 841 841 843 845 844 844 844 842 842 841 840 839 837 835 833 830 828 825 823 820 818 815 812 810 807 805 802 800 798 796 793 790 788 784 782 781 780 780 780 781 781 781 780 780 781 783 784 784 783 783 784
745 756 767 773 770 764 760 760 761 763 764 764 770 780 779 773 771 769 773 782 793 807 809 806 817 829 831 832 832 833 836 837 837 838 839 841 842 844 846 846 846 845 843 843 842 841 841 839 837 834 831 829 827 825 823 820 818 815 812 810 807 804 801 798 796 794 791 788 785 783 781 779 779 778 778 778 778 778 778 778 778 779 780 780 782 784
744 757 766 772 778 775 769 767 763 762 768 774 781 786 783 780 778 776 779 780 787 807 807 797 812 829 831 834 835 835 838 838 838 841 841 842 844 846 847 848 847 846 845 844 844 843 842 841 838 835 833 831 828 827 824 822 819 817 814 811 809 806 803 800 798 795 792 789 786 783 781 778 777 775 776 776 776 776 775 775 775 776 776 778 780 782
747 764 765 764 775 781 779 776 772 770 775 782 788 789 786 785 778 773 777 775 783 809 813 800 814 832 832 835 837 837 840 841 842 844 844 844 847 848 849 850 849 848 848 847 846 845 844 842 840 837 834 832 830 828 825 823 820 817 815 813 810 807 805 802 799 797 794 791 787 784 781 778 776 775 775 775 775 774 773 773 773 774 775 777 779 781
754 774 776 769 768 771 773 776 779 779 779 784 789 790 793 797 788 775 773 774 786 810 818 811 816 827 832 837 839 840 842 844 846 846 846 848 850 850 851 851 851 850 850 850 849 847 845 843 840 838 835 832 830 828 826 824 821 818 816 813 811 809 806 804 802 799 796 793 789 786 782 779 777 776 775 775 774 773 772 773 773 774 774 775 777 780
754 774 782 783 783 783 784 787 787 787 789 793 795 794 797 798 789 777 779 789 794 798 807 816 818 822 832 838 840 843 845 847 848 849 851 853 852 853 853 852 852 852 852 852 851 849 846 843 841 838 835 833 831 829 827 825 823 820 818 815 812 810 808 806 803 801 798 795 792 789 785 781 779 776 775 774 773 772 772 772 772 773 774 775 776 778
758 777 784 786 793 796 795 795 793 793 798 802 802 801 801 798 792 790 800 811 805 790 796 814 821 826 835 839 842 846 847 849 852 852 854 855 854 855 855 854 854 853 853 853 851 849 847 844 841 839 836 834 832 830 828 826 824 822 820 817 814 812 809 807 805 802 799 796 793 791 787 784 780 776 774 773 772 771 771 770 770 771 772 773 774 775
762 784 788 786 794 800 799 799 797 796 800 803 805 807 806 805 805 806 811 816 812 803 806 818 828 835 840 842 845 848 849 851 853 854 855 856 856 856 856 856 856 855 854 853 851 849 847 844 842 839 837 835 833 831 829 828 826 824 822 819 816 814 811 808 806 803 800 797 795 792 788 785 781 777 774 772 771 770 769 769 769 769 770 770 772 773
762 782 787 785 794 803 804 803 801 800 803 808 813 814 811 811 812 814 816 816 817 821 825 829 835 842 845 846 849 850 851 853 855 856 858 857 857 857 857 857 857 855 855 854 852 850 847 844 843 840 838 836 834 832 831 829 827 825 823 820 817 815 812 810 807 805 802 799 796 792 789 785 781 778 775 772 770 768 767 767 767 767 768 768 769 771
761 780 787 784 791 804 807 807 806 804 803 810 818 820 818 818 817 818 819 817 818 826 831 831 837 845 849 850 851 853 854 856 858 859 859 858 858 858 858 858 857 856 856 855 853 850 848 846 844 842 840 838 835 833 831 829 827 825 823 821 818 816 813 811 808 806 803 800 797 793 789 785 781 778 774 771 769 767 765 765 765 765 766 766 767 768
765 776 784 784 790 804 808 804 804 799 795 805 820 824 823 823 822 823 824 823 822 824 824 826 834 845 849 850 853 856 858 859 861 861 861 861 860 859 859 859 858 857 856 855 853 851 849 848 846 844 842 839 837 834 832 830 828 826 824 822 820 817 814 811 809 806 803 801 797 794 790 787 783 779 775 771 768 766 764 763 763 763 764 764 765 766
771 774 782 786 791 804 807 804 802 798 798 812 825 826 824 825 826 828 831 832 829 827 827 830 838 846 849 851 854 857 859 861 862 862 862 862 861 860 860 860 859 859 858 856 854 852 850 849 847 845 843 840 838 836 833 831 829 827 826 824 821 819 816 813 810 807 804 802 799 796 792 788 785 781 776 773 769 766 763 762 762 762 762 763 764 764
772 774 783 790 795 801 805 802 799 803 814 825 829 826 825 829 830 832 836 837 835 835 836 839 844 849 851 854 856 857 859 861 862 862 862 862 862 862 861 861 861 860 859 858 855 853 852 850 848 847 844 842 840 837 834 832 830 829 827 825 823 821 818 815 812 808 806 803 800 797 794 791 787 783 779 775 771 767 764 762 762 762 762 762 763 764
770 775 784 794 799 800 803 803 804 816 829 831 829 828 827 828 828 829 835 840 840 839 840 843 849 852 854 856 857 858 860 860 861 863 863 863 863 862 862 862 862 861 860 859 857 855 853 852 850 849 846 844 842 838 836 834 832 830 828 826 824 822 820 817 814 811 808 805 802 799 796 793 790 787 782 778 774 770 767 765 764 763 762 763 763 764
768 773 781 794 803 804 809 816 820 827 831 828 828 829 828 828 828 828 834 843 844 842 843 847 851 854 855 857 858 858 858 859 862 865 864 863 863 863 862 862 861 861 860 859 857 856 854 853 852 850 848 846 843 840 838 836 833 831 829 827 825 823 821 818 816 813 811 808 805 802 799 796 793 790 787 782 778 775 772 769 768 766 765 765 766 766
769 770 772 785 803 809 812 822 828 827 825 825 828 829 827 829 830 828 832 842 845 844 845 847 851 854 856 857 857 858 856 857 863 867 866 864 864 863 863 862 861 861 860 859 858 856 854 853 852 851 849 847 844 842 840 838 835 832 830 828 826 824 822 820 818 816 813 811 808 805 803 800 797 794 790 787 784 781 777 773 772 771 770 769 770 770
776 780 777 784 802 807 807 817 826 825 824 826 829 829 828 829 830 828 829 838 845 846 845 847 851 853 855 855 857 858 856 857 865 869 866 865 865 864 863 863 862 861 860 859 858 857 855 855 853 851 850 847 845 844 842 840 837 834 832 830 828 826 824 822 821 818 816 814 811 809 806 803 800 797 794 791 788 785 782 778 776 776 775 774 775 775
780 787 787 791 803 809 812 822 827 826 828 830 830 829 828 827 830 828 824 832 844 846 844 847 850 852 853 855 856 858 857 857 863 867 866 865 865 865 864 864 863 862 861 860 859 858 857 856 854 852 851 849 848 846 845 842 840 837 834 832 829 828 826 825 824 821 819 817 814 811 809 806 803 801 798 795 792 790 788 784 780 779 778 779 780 780
795 799 802 804 810 815 820 828 829 828 830 831 829 830 828 827 828 824 822 833 845 846 844 846 849 851 853 854 856 859 860 859 862 865 865 865 865 865 865 865 864 863 862 861 860 859 858 857 856 854 852 851 850 848 846 845 842 839 836 834 831 830 828 828 826 824 821 819 816 814 811 809 807 804 801 799 797 794 792 790 786 783 782 783 785 786
801 806 810 812 818 825 831 830 826 825 830 832 830 830 828 825 825 827 832 840 844 843 844 847 849 851 854 856 858 861 862 862 863 864 865 866 866 866 866 865 864 864 863 862 861 860 859 858 857 856 854 852 851 850 848 846 843 840 838 836 834 832 831 830 828 825 823 821 818 816 814 812 810 808 805 803 801 798 796 795 793 790 787 785 787 790
807 809 816 824 828 829 830 824 814 815 828 835 832 828 826 825 827 833 840 844 844 844 846 848 850 852 854 858 860 861 862 864 864 865 866 866 866 866 866 866 866 865 864 863 862 862 861 860 858 857 855 854 853 851 850 847 845 842 840 838 836 835 834 832 829 827 825 822 821 819 817 815 813 811 809 807 805 802 800 799 797 796 793 791 790 792
814 813 819 830 831 820 815 817 818 823 833 837 832 829 830 831 833 837 841 843 845 847 847 849 852 853 854 857 861 862 863 865 865 866 866 866 867 867 867 867 867 866 865 864 863 863 861 861 859 858 856 855 854 853 851 849 847 845 842 841 839 838 836 834 831 830 827 825 823 822 820 818 817 815 813 811 809 807 804 803 802 800 799 798 796 796
817 816 816 825 831 825 822 827 833 835 836 835 834 835 836 836 837 838 840 843 847 847 847 849 853 853 854 857 860 862 864 865 866 867 867 867 868 868 868 868 867 867 866 865 864 863 862 861 860 859 857 856 855 854 853 851 849 847 845 844 842 840 838 836 834 832 830 828 827 825 823 822 820 818 816 814 812 811 809 808 806 805 805 805 803 802
820 818 816 823 830 831 831 834 837 836 836 836 837 837 838 838 840 841 842 845 847 848 848 850 852 854 855 857 860 863 865 865 866 868 868 868 869 869 868 868 868 867 867 865 864 863 862 861 861 859 857 856 855 855 854 853 851 850 848 847 845 843 841 838 836 834 833 832 830 828 826 824 822 821 819 817 816 814 813 812 812 811 811 810 809 809
818 816 818 824 827 829 833 837 838 837 839 839 839 840 841 842 843 843 844 846 847 849 850 851 853 856 857 858 860 863 865 866 867 868 869 869 869 869 869 869 868 867 867 866 865 864 863 862 861 860 858 857 856 855 855 854 853 852 851 849 848 845 843 841 839 837 836 834 833 831 829 827 826 824 822 821 819 818 817 817 816 815 815 814 814 814
817 817 821 826 829 830 834 838 839 838 840 840 841 843 844 844 845 846 846 847 849 850 852 854 856 857 858 860 861 863 865 866 867 868 869 870 870 870 870 869 869 868 867 866 866 865 864 863 862 861 860 858 857 856 856 855 854 853 852 851 850 848 846 844 842 840 839 837 836 834 832 831 829 827 825 824 822 821 820 820 819 818 818 817 817 817
815 818 822 827 831 834 836 838 839 839 842 844 843 844 845 845 847 848 848 850 851 852 854 856 857 858 860 861 862 864 866 867 868 869 869 870 870 870 870 869 869 869 868 868 867 866 865 864 863 862 861 860 858 857 857 856 855 855 854 852 851 850 848 846 845 843 841 840 838 837 835 834 832 830 829 827 826 824 823 823 822 821 820 820 820 819
816 822 825 827 830 833 834 835 835 836 841 845 845 845 846 847 848 849 850 852 853 854 856 858 859 860 861 862 863 865 866 868 869 869 869 870 870 870 870 870 870 869 869 869 868 867 867 866 865 864 862 861 860 859 858 857 857 856 855 854 853 851 850 848 847 845 844 842 840 839 837 836 835 833 832 831 829 828 827 826 825 824 823 823 822 822
815 820 822 821 824 827 828 831 832 834 839 845 846 846 848 848 848 850 852 853 855 856 857 859 860 862 863 864 865 866 866 868 869 869 870 870 870 871 870 870 870 870 870 870 869 868 868 867 866 865 863 862 862 860 859 859 857 856 856 855 854 853 852 850 849 847 846 844 843 841 839 838 837 836 835 834 833 831 830 829 828 827 827 826 825 824
Wind_Speed
4 4 2 5 6 6 7 7 7 6 7 7 5 5 4 2 2 5 4 6 3 0 3 3 5 8 9 9 9 7 9 13 12 10 5 3 2 2 2 0 0 2 3 2 4 10 13 18 18 17 17 17 20 23 24 24 25 25 22 20 22 23 23 22 22 21 21 23 23 23 24 25 25 26 25 24 25 25 25 25 25 24 24 25 24 23
4 5 5 7 8 7 6 6 7 6 6 6 6 5 2 1 3 6 4 6 3 1 3 4 11 9 8 8 9 9 12 14 12 11 9 6 4 3 2 2 2 1 2 1 4 8 11 14 13 12 14 15 17 20 20 20 20 20 18 17 17 18 18 19 19 20 21 23 24 24 24 25 24 24 24 23 24 25 25 26 26 25 25 25 25 25
3 3 7 7 6 5 5 4 7 6 6 5 4 5 1 2 3 5 4 5 3 1 1 7 12 6 6 6 9 12 10 8 9 11 10 9 9 7 3 1 2 3 2 2 3 5 8 9 8 9 9 11 13 14 14 14 13 13 12 11 12 13 14 15 17 18 20 22 24 24 23 22 21 21 22 22 23 24 24 25 27 27 26 26 27 27
3 4 7 6 6 7 5 4 7 6 4 4 4 5 2 3 0 1 3 5 4 2 3 9 9 4 6 6 9 11 8 8 9 9 9 11 12 10 7 5 2 0 3 4 3 2 2 3 3 4 5 6 9 9 10 10 11 11 11 13 14 13 14 14 15 16 17 18 20 20 20 18 18 17 18 19 20 21 22 23 26 27 26 27 29 29
4 4 4 8 7 7 6 4 6 5 1 1 3 6 3 3 3 3 3 4 4 4 5 8 6 5 6 7 9 9 8 11 10 10 13 14 12 10 10 11 8 6 5 4 4 5 6 6 5 5 7 8 8 9 11 12 14 16 17 18 19 17 16 15 14 15 16 16 17 16 15 14 14 13 13 16 18 18 20 23 24 26 28 29 29 29
5 3 6 8 5 6 7 4 5 6 3 2 3 6 7 6 5 3 3 5 5 4 2 5 5 3 4 7 8 7 9 12 10 12 15 15 13 12 12 12 10 9 8 6 6 6 7 7 7 8 9 11 11 9 8 8 7 9 12 15 16 16 16 16 16 16 17 17 16 15 14 13 12 13 13 15 18 18 20 23 24 26 27 28 27 27
2 4 6 7 6 6 6 4 4 6 6 2 5 8 8 7 5 2 1 3 2 1 0 4 6 2 2 6 6 5 9 11 10 13 14 13 13 12 11 11 10 11 10 10 10 9 9 9 9 9 10 13 15 12 8 8 8 8 8 9 12 15 18 19 19 19 19 19 18 15 15 12 10 11 11 13 15 18 20 22 24 27 26 25 25 24
4 6 5 6 6 5 5 4 5 7 8 3 6 9 9 7 6 4 4 4 2 3 2 4 5 4 1 3 4 4 8 10 10 12 13 12 13 12 12 12 12 13 12 12 12 12 12 14 14 13 14 15 14 11 8 6 9 10 9 7 10 16 18 18 20 20 19 20 19 14 9 7 8 7 9 14 16 18 20 22 25 29 27 25 25 25
4 7 7 7 5 3 4 6 8 10 5 5 6 8 8 7 7 6 6 3 1 1 3 6 3 5 0 2 3 4 6 9 9 11 12 12 13 13 12 13 13 12 13 13 12 12 14 17 18 14 14 14 12 12 9 3 5 9 10 10 11 15 18 18 21 23 21 18 16 12 9 11 17 17 15 17 20 19 18 21 24 26 26 25 25 26
2 6 8 8 5 5 6 5 10 12 5 5 7 7 4 5 5 5 5 3 3 3 3 6 3 5 1 3 2 2 4 6 7 8 9 11 12 12 12 13 13 12 11 12 11 13 16 18 19 17 17 18 17 13 9 5 4 5 5 6 9 12 14 15 18 21 22 18 13 14 17 21 26 24 19 18 20 19 18 20 22 21 23 24 25 25
1 1 4 5 5 6 5 4 9 12 7 6 8 7 6 6 5 4 3 3 4 1 5 5 1 5 1 2 2 2 3 4 4 6 8 10 11 11 10 11 12 11 10 10 10 13 17 19 21 23 22 22 22 18 14 11 10 10 11 12 10 9 9 10 11 14 18 17 16 21 26 27 26 23 22 22 21 19 19 21 21 20 22 24 27 27
5 2 2 3 3 5 5 3 2 4 3 6 5 5 5 3 4 4 4 3 4 3 5 3 3 5 2 2 2 4 5 6 6 6 8 10 9 9 9 10 10 10 10 11 11 12 16 18 20 23 22 22 23 23 21 19 18 16 14 14 15 15 14 13 13 14 15 15 17 24 27 26 25 23 24 24 22 21 21 21 20 20 22 24 27 28
2 2 3 4 2 5 6 3 3 3 3 5 5 6 6 2 2 2 2 0 2 3 2 3 2 4 2 1 5 6 7 8 8 8 8 8 9 9 10 10 10 10 11 11 11 11 13 14 16 19 20 21 22 23 24 24 22 20 18 16 15 15 16 15 15 15 14 15 18 24 26 25 25 25 26 26 24 23 23 22 21 22 23 24 25 27
1 4 4 2 3 4 7 5 2 0 2 5 5 6 5 3 3 2 1 0 1 2 1 4 2 2 1 2 5 7 8 9 9 8 8 8 9 9 9 10 10 11 11 11 11 10 11 14 16 16 17 19 20 22 24 25 24 23 21 20 18 16 16 15 13 14 14 15 19 24 26 25 25 27 28 28 26 25 24 24 24 24 25 26 26 26
3 3 4 4 2 4 8 7 7 7 5 4 4 6 5 4 5 3 3 2 2 1 3 4 3 1 1 1 3 7 9 9 9 7 6 7 6 6 7 9 11 12 11 11 11 11 12 15 16 16 18 19 20 22 23 24 25 24 23 23 21 18 17 16 14 15 16 16 18 22 25 25 27 29 29 28 27 27 26 25 25 25 25 26 27 25
4 4 6 3 2 6 7 5 6 8 4 1 2 6 3 5 6 4 3 4 5 3 3 3 1 1 0 2 2 7 10 8 6 5 6 7 7 6 7 9 10 10 11 11 10 11 13 16 16 16 17 18 21 23 24 24 24 24 23 22 22 19 17 17 15 15 18 19 19 19 22 24 25 26 26 26 27 27 25 24 26 26 25 26 26 24
3 3 6 4 1 5 6 5 5 5 4 2 2 4 4 3 8 6 2 1 4 5 1 1 2 0 1 1 1 7 9 6 5 6 7 8 8 9 9 9 10 10 11 11 9 9 12 15 15 15 15 17 20 22 23 23 23 22 22 21 21 20 18 17 16 14 17 20 21 20 20 22 23 22 23 24 24 25 24 23 24 25 25 25 24 24
4 2 5 3 1 2 1 5 5 3 4 5 3 6 3 3 6 5 3 3 4 4 0 2 2 2 2 1 3 7 7 7 7 7 8 9 10 10 10 10 11 11 10 10 10 10 12 14 16 17 17 18 19 20 20 22 22 23 22 22 22 21 20 19 18 15 15 18 21 21 20 21 22 22 22 23 22 24 24 23 23 24 24 24 24 25
3 1 5 3 1 3 5 7 5 6 3 5 5 5 4 3 2 2 3 2 2 3 1 1 1 1 2 1 3 7 7 7 6 6 8 9 9 9 9 10 10 10 9 9 9 9 11 14 17 18 19 20 20 20 20 21 22 24 26 25 24 22 21 21 19 17 15 15 17 20 20 21 23 23 23 22 22 24 23 22 24 25 24 23 24 24
3 3 3 4 2 2 5 5 3 2 5 5 4 3 3 3 4 3 2 3 4 3 2 2 1 2 1 1 2 7 7 7 6 5 7 8 8 7 7 8 9 9 8 8 8 8 12 16 18 19 19 20 20 20 21 22 22 24 26 28 27 25 24 22 21 19 17 15 15 16 17 19 22 23 22 20 20 23 23 23 26 26 24 23 23 25
3 3 1 5 5 2 3 2 3 4 2 3 3 2 1 2 2 3 2 2 4 5 3 3 3 3 1 2 2 8 8 6 6 6 7 7 8 7 7 7 8 8 8 8 8 9 12 15 18 19 19 20 21 22 23 24 24 25 27 29 28 27 26 26 24 21 18 16 15 15 15 16 17 19 19 19 20 22 23 25 27 26 24 22 22 25
1 3 3 2 4 3 1 2 2 3 5 5 3 3 4 3 4 4 2 1 3 4 4 5 3 2 2 4 3 8 8 6 7 7 8 7 8 8 7 8 8 8 8 9 9 10 13 15 17 18 19 20 22 24 25 25 26 27 29 29 29 29 28 28 27 25 21 17 16 17 16 14 13 13 15 16 19 21 22 25 28 26 23 23 23 25
3 4 4 2 1 1 3 3 3 1 4 6 4 2 3 3 4 5 4 3 3 3 2 4 3 2 2 4 4 7 7 7 7 8 8 7 8 8 8 8 9 8 9 9 10 11 14 15 16 17 18 19 21 23 25 25 26 27 28 28 29 30 30 29 28 27 25 20 17 17 17 15 13 11 11 12 15 18 21 24 26 25 24 24 24 25
3 4 4 2 2 3 4 5 4 3 5 6 5 3 2 2 3 5 5 4 4 3 2 4 2 2 2 4 5 7 6 6 7 8 8 7 7 7 8 8 8 8 9 10 10 12 14 16 17 17 18 18 20 22 23 24 25 26 27 27 28 28 29 30 29 28 26 23 20 17 17 16 15 13 12 12 12 16 19 22 23 24 24 25 24 24
2 2 4 4 3 4 5 5 4 4 4 4 2 4 3 3 5 4 3 4 4 3 3 5 2 1 3 4 6 6 6 8 8 7 7 7 7 7 7 7 7 8 9 10 10 11 13 14 16 17 17 18 20 22 22 23 24 24 25 27 27 28 28 29 29 28 27 25 22 19 18 18 17 16 15 14 14 15 18 22 23 24 24 24 23 24
4 3 3 5 4 3 2 1 1 0 2 2 2 5 5 4 4 4 3 4 3 2 2 4 4 4 5 6 6 6 6 8 8 7 7 8 7 6 5 5 6 7 8 9 9 9 10 11 13 16 17 18 20 21 22 23 25 26 26 26 27 28 28 28 28 28 27 26 25 23 22 21 20 18 17 16 17 16 18 22 23 24 24 22 20 22
5 3 3 5 5 4 5 4 2 2 3 2 3 6 6 4 3 4 4 3 4 4 3 1 7 9 7 7 7 6 6 6 6 7 8 7 6 6 5 5 6 6 7 8 8 8 9 10 13 16 17 19 20 21 22 23 25 26 27 28 28 28 28 28 27 27 26 26 26 25 24 23 21 20 18 17 18 17 18 20 22 23 23 22 20 20
6 4 5 7 8 4 2 3 4 6 6 4 3 6 7 6 5 6 5 2 5 6 1 2 9 10 7 7 7 6 6 6 6 8 7 6 6 5 5 6 7 7 6 6 7 7 8 9 12 16 18 19 21 22 22 23 24 26 27 29 30 29 28 28 27 27 26 25 25 26 26 24 22 20 19 18 17 18 18 19 22 22 22 22 21 20
7 3 3 7 10 9 7 6 9 10 9 8 9 8 8 9 9 8 5 3 2 3 5 9 11 9 7 7 7 6 6 6 7 7 6 5 6 6 6 7 7 7 6 7 7 7 7 8 12 16 18 20 21 22 23 23 24 25 27 28 29 30 29 28 26 27 27 26 25 25 26 25 23 20 19 18 17 18 19 20 22 22 22 22 22 22
5 3 3 7 10 11 9 6 8 11 10 10 12 10 10 11 12 10 7 6 7 6 8 13 13 8 6 6 7 7 6 6 6 6 6 6 7 6 6 7 6 7 7 8 8 7 8 10 14 17 19 20 22 22 22 23 23 24 25 27 29 29 29 29 28 28 28 28 27 26 26 26 25 23 20 18 17 17 20 21 21 22 23 23 23 23
4 3 1 3 7 8 8 7 9 11 12 12 11 10 10 10 10 9 7 8 9 8 9 12 12 7 4 5 7 7 6 6 6 6 6 6 7 6 7 6 6 7 8 7 7 8 9 12 15 17 19 21 22 23 23 23 24 25 26 28 29 29 29 30 30 30 29 29 29 28 27 27 27 25 22 20 18 17 19 22 22 21 22 23 23 24
4 4 1 2 5 3 3 7 9 10 12 12 10 8 8 6 5 5 4 4 5 9 11 10 6 4 4 5 7 7 7 8 7 6 6 6 6 7 7 6 6 7 7 7 7 8 9 11 14 17 19 21 22 24 24 25 25 26 27 28 29 30 31 31 31 31 31 31 31 30 29 28 28 27 25 21 19 17 17 20 23 22 22 23 24 24
3 6 4 2 5 3 2 3 4 5 6 6 5 5 5 4 4 6 6 5 3 7 8 5 4 6 6 6 7 7 7 8 7 6 5 5 5 7 7 6 6 6 6 6 7 8 9 12 15 17 20 22 23 25 26 26 27 27 27 28 30 31 33 33 32 32 32 33 33 33 31 29 29 29 27 24 20 17 17 19 23 24 23 24 25 25
4 6 4 2 4 5 4 1 4 3 2 1 2 2 1 3 6 7 6 6 5 4 5 6 7 8 7 6 7 8 7 7 6 5 5 4 4 5 6 6 6 6 7 7 7 9 12 15 18 20 22 23 24 25 26 27 27 27 28 29 30 31 33 33 34 34 34 34 34 34 33 31 30 30 29 27 23 17 15 15 21 27 26 25 26 27
5 5 3 2 3 4 2 2 3 1 1 2 2 3 5 7 10 12 10 8 8 9 11 12 10 9 8 8 8 8 8 8 6 6 6 6 5 5 6 6 6 6 6 6 7 11 14 17 18 21 22 23 24 24 25 26 27 27 28 29 30 30 31 32 33 34 34 35 35 35 34 32 31 30 30 29 26 20 17 13 9 18 23 25 26 27
7 5 3 3 2 3 2 2 2 2 1 2 3 4 6 6 6 8 9 8 6 7 9 11 9 9 10 9 8 7 8 7 6 6 6 6 5 5 5 4 5 5 6 7 8 11 15 17 18 20 21 22 23 24 24 25 26 26 28 29 30 31 31 31 32 33 34 35 35 35 34 33 31 30 30 30 28 25 23 21 14 3 8 17 22 24
7 6 4 3 2 2 3 3 3 3 2 3 3 1 2 2 1 2 4 4 3 3 6 10 10 9 9 9 8 7 6 6 6 5 5 6 5 5 5 5 6 7 9 11 13 15 18 19 19 19 20 22 23 23 24 24 25 26 27 29 31 31 32 32 32 32 33 33 34 34 34 33 31 30 29 29 29 28 27 25 22 17 8 4 10 16
6 4 5 4 1 2 4 3 3 2 2 2 3 1 1 1 2 2 3 3 2 4 7 10 11 10 9 8 7 6 4 3 4 3 4 5 5 6 7 9 10 11 12 14 16 18 20 20 19 20 20 21 22 23 23 23 25 26 27 28 30 30 31 32 31 31 31 31 32 34 34 33 32 30 30 29 28 27 28 28 27 24 19 14 10 7
9 5 4 6 3 2 4 3 2 2 2 1 3 2 1 1 2 2 2 2 2 5 7 9 10 10 9 9 7 4 2 2 2 1 2 3 4 6 7 9 12 13 14 15 16 17 18 19 20 21 21 21 21 22 23 23 25 26 27 27 29 29 30 30 30 30 29 28 29 31 33 34 33 31 31 30 28 27 27 28 29 28 26 24 21 17
8 5 4 5 4 3 4 2 1 1 1 1 1 2 3 1 1 2 1 2 3 5 6 9 11 9 8 8 5 2 1 2 3 2 1 2 3 7 8 8 11 13 14 16 17 17 18 19 20 20 20 21 21 22 23 23 24 25 26 26 28 29 28 29 29 29 27 25 26 27 30 32 33 32 31 31 31 30 28 28 29 30 31 31 28 25
4 4 3 4 4 4 4 2 0 1 1 1 1 3 3 1 1 2 2 2 4 5 6 8 9 8 6 5 3 2 1 2 4 4 2 3 4 7 9 10 10 11 13 15 16 17 18 19 19 19 18 19 21 22 23 23 24 24 25 25 26 27 26 26 28 29 27 25 24 24 26 29 31 32 31 31 33 34 33 31 31 32 34 34 34 31
2 3 2 2 3 3 3 3 1 1 1 0 2 3 2 1 2 2 2 2 4 6 6 6 7 6 5 5 5 4 4 5 6 5 4 5 4 5 8 9 10 11 12 13 14 16 18 19 20 20 18 17 19 21 22 24 25 24 24 24 24 24 24 24 27 29 28 26 24 23 24 25 27 29 30 30 32 34 35 34 33 33 33 35 36 35
2 2 1 1 2 2 3 3 1 2 0 2 2 2 1 1 3 3 4 3 3 5 7 6 5 6 8 7 7 7 6 6 6 4 4 4 3 4 5 7 9 11 12 13 14 16 18 19 20 20 17 16 17 19 21 23 24 24 25 24 23 23 23 23 24 27 29 27 25 23 22 22 23 24 26 27 29 31 33 33 34 34 33 33 34 34
2 1 2 2 2 1 2 2 2 1 1 2 1 1 1 2 3 5 5 4 3 4 5 5 5 6 9 10 8 7 7 6 4 4 3 3 3 4 6 8 10 11 13 14 15 16 17 18 19 17 15 14 15 16 18 21 22 24 24 23 21 23 24 23 23 25 27 28 26 23 22 21 20 21 22 22 24 26 28 29 30 31 32 31 32 31
1 2 3 2 2 3 2 2 2 1 2 2 2 2 4 6 5 5 6 6 4 3 4 6 7 8 10 11 9 6 6 5 4 3 3 3 4 6 7 8 9 11 13 15 15 15 15 14 14 14 13 13 13 14 16 18 21 22 23 21 21 23 24 24 23 23 24 26 26 24 23 21 20 20 19 19 20 22 24 25 26 27 27 27 28 29
2 3 3 3 4 4 4 4 3 4 5 6 6 5 6 6 5 5 6 6 4 4 4 6 8 8 9 9 8 5 4 4 4 4 3 4 4 5 7 8 10 13 15 16 16 15 13 12 13 14 14 14 13 12 14 17 19 20 21 20 20 22 23 23 23 22 21 23 25 24 23 22 22 21 19 18 18 19 19 21 22 24 24 23 23 23
0 2 3 4 4 3 3 3 4 5 6 6 7 6 6 6 5 4 5 5 5 6 6 7 8 8 7 7 7 6 5 5 4 4 3 3 3 6 8 10 12 14 14 14 14 14 14 15 15 16 17 17 15 12 12 15 17 18 18 18 18 20 21 22 23 23 20 20 22 23 22 22 22 23 23 21 20 19 18 17 17 18 19 19 19 19
0 2 4 4 3 3 4 5 6 7 7 6 6 5 5 5 6 5 5 6 7 8 9 9 9 7 6 6 7 7 5 4 4 4 2 2 4 6 8 10 12 14 13 12 12 14 15 16 16 17 18 19 17 12 11 13 15 16 17 17 17 18 19 20 21 22 21 18 18 20 20 20 20 21 23 24 24 23 22 20 18 17 16 15 14 14
2 3 3 4 6 6 6 7 7 8 8 6 5 5 4 5 7 7 6 7 8 8 8 9 9 8 7 8 8 7 5 4 4 3 1 2 4 6 8 10 11 11 10 10 11 13 14 15 16 17 18 19 17 14 11 11 13 15 16 16 16 17 17 18 18 19 19 18 17 16 16 17 17 18 19 21 23 24 23 22 21 20 18 16 13 12
3 3 4 6 6 3 4 6 6 6 5 3 4 6 6 6 7 8 7 7 7 7 7 7 8 9 9 9 9 8 6 4 3 2 1 2 4 6 8 10 9 8 8 8 10 12 13 14 15 17 18 18 18 16 12 10 11 13 14 15 15 16 16 16 16 16 17 17 16 15 13 13 14 15 16 17 19 21 21 21 20 19 19 18 16 14
3 5 5 5 3 3 6 7 5 5 5 5 5 6 6 6 7 8 7 6 6 7 8 8 6 7 7 7 8 8 6 5 4 2 1 2 4 5 7 7 6 6 6 7 9 12 13 14 14 15 16 16 16 16 15 12 12 12 13 14 14 14 14 15 15 15 15 15 15 15 13 11 11 12 13 14 15 17 18 18 18 18 17 17 16 15
Wind_Direction
120 122 170 185 189 191 197 181 163 167 142 131 119 104 120 112 283 263 261 275 260 159 277 163 93 42 38 24 9 358 18 32 14 3 23 52 84 77 51 13 78 193 253 295 211 213 213 217 219 219 222 223 225 227 229 229 228 229 230 230 230 230 229 223 218 214 213 213 213 215 215 214 216 217 218 219 220 221 221 223 226 226 226 226 225 227
103 148 212 212 195 186 186 170 135 123 117 112 119 108 92 148 261 263 248 293 307 147 281 77 78 47 34 29 15 21 35 30 13 14 13 11 44 83 115 119 120 160 301 321 196 206 212 221 224 223 226 226 230 233 235 237 237 237 238 239 240 240 239 231 223 218 217 220 219 219 219 216 217 218 219 220 223 223 221 223 228 230 230 227 224 226
117 182 231 221 181 122 92 112 107 107 112 101 118 118 117 226 268 288 281 317 360 99 310 72 80 38 358 15 28 33 41 37 22 25 23 24 32 24 20 88 148 170 251 258 226 211 210 222 226 228 237 240 244 249 253 257 261 262 264 270 270 266 260 248 236 227 222 225 226 226 226 223 221 223 225 226 229 229 227 226 228 232 233 230 227 227
147 230 230 188 141 110 86 94 101 95 92 94 120 128 195 258 265 286 295 325 0 46 82 95 91 37 350 360 32 32 32 43 35 30 33 38 39 26 14 8 4 275 261 262 268 268 249 258 250 259 290 295 290 301 314 316 319 315 308 311 312 304 292 275 258 245 236 233 234 233 234 234 231 232 233 233 235 236 234 232 232 235 236 232 230 229
182 227 174 135 143 142 119 104 116 122 127 211 157 141 171 221 190 208 293 335 354 23 80 102 77 20 6 14 24 16 25 41 32 32 39 38 38 37 34 30 22 14 354 334 343 356 7 13 10 1 5 2 345 338 345 352 355 351 344 338 334 326 315 301 284 268 257 251 249 245 243 243 239 238 235 231 233 234 236 240 240 240 238 235 231 229
208 198 115 119 158 155 133 147 164 151 155 262 222 175 177 173 181 236 350 28 29 10 48 100 76 1 344 26 26 4 31 41 27 35 41 37 36 38 38 35 32 32 30 23 17 17 22 29 30 16 12 22 25 14 354 343 333 325 326 326 324 319 307 294 283 275 268 259 256 252 245 239 233 233 230 226 227 227 232 241 246 244 239 235 231 225
194 167 126 125 153 155 146 181 207 152 130 242 234 188 175 151 148 208 45 69 64 252 231 90 107 168 323 30 18 356 44 46 32 40 41 37 36 34 35 33 32 33 34 36 34 31 32 39 46 40 39 47 48 34 350 303 276 265 271 287 298 296 285 278 277 274 267 259 256 254 249 247 244 241 244 243 238 234 234 239 246 246 240 235 232 224
165 152 128 121 130 140 152 196 211 150 125 225 228 171 159 152 160 176 140 134 216 244 337 27 103 130 65 35 343 338 54 48 35 42 42 41 37 33 33 32 34 34 33 36 36 33 33 35 41 52 59 58 54 41 5 304 271 264 253 254 285 289 281 277 276 271 264 258 254 253 258 279 286 278 272 264 253 246 241 239 244 245 239 234 231 223
157 159 167 150 127 141 186 205 186 152 145 230 200 155 155 154 160 154 123 127 274 16 310 322 53 98 300 305 329 348 52 44 33 40 42 43 40 37 34 30 33 34 33 35 33 33 33 30 32 44 53 44 41 41 29 352 263 265 251 238 254 272 275 271 267 263 260 258 249 241 247 264 262 256 256 256 252 250 246 240 242 241 237 232 228 223
157 180 176 148 139 191 208 199 168 161 188 210 146 112 98 89 90 100 106 116 51 57 242 282 16 97 276 314 4 11 36 34 30 40 43 44 43 42 36 29 28 28 30 32 30 31 30 27 26 33 40 33 30 31 16 347 324 326 315 280 255 254 260 263 264 260 253 248 238 234 243 252 253 248 247 250 249 250 249 241 237 234 233 234 230 225
327 181 151 142 172 193 187 170 172 176 175 141 114 81 62 51 47 58 61 93 80 359 252 264 24 105 146 309 36 47 43 42 39 44 41 40 40 40 39 33 28 26 25 25 28 29 26 23 21 25 30 26 23 21 13 3 356 355 349 336 321 301 288 280 274 261 245 236 231 238 244 247 247 244 244 246 244 247 249 241 234 229 230 232 229 225
345 32 169 222 195 141 112 93 183 196 130 99 103 100 90 24 21 40 358 49 102 248 263 288 48 88 118 225 103 89 82 65 53 50 42 37 36 35 38 37 33 29 25 23 24 21 18 18 17 19 21 19 18 16 11 9 3 357 350 336 329 325 317 302 283 268 248 231 230 241 246 247 245 243 244 244 241 245 249 242 233 228 225 223 221 220
313 238 267 296 236 140 116 80 26 2 36 86 99 114 114 46 37 65 315 52 159 234 273 333 25 75 79 131 107 103 94 77 66 59 47 35 28 28 31 31 31 32 30 28 25 18 13 11 10 12 14 13 13 11 8 7 4 1 356 344 331 321 314 304 290 281 264 244 242 246 246 248 248 246 243 241 239 240 244 243 238 231 223 220 219 217
263 280 298 322 271 177 138 132 127 145 157 139 135 139 139 113 107 159 256 255 229 234 297 330 10 91 154 110 114 118 101 86 79 67 57 45 27 22 25 25 28 30 31 31 27 22 16 9 6 6 8 9 8 8 8 7 5 1 358 354 345 329 320 314 307 300 283 261 253 248 244 246 249 249 243 237 236 235 235 239 239 235 228 227 227 223
140 264 240 177 231 185 162 169 167 156 150 162 159 136 145 152 139 172 192 167 191 198 329 342 32 132 211 29 86 119 107 92 90 81 69 60 36 26 26 23 27 27 27 28 24 23 17 11 7 3 4 5 4 5 6 6 6 4 1 1 358 349 337 328 315 299 289 278 263 250 246 247 248 247 242 236 238 238 236 239 240 237 231 231 233 230
132 229 250 231 176 164 179 192 142 129 125 179 146 110 150 185 138 128 169 161 155 130 4 355 49 323 118 28 24 104 102 90 94 87 69 56 34 29 27 21 25 25 23 24 22 20 14 10 8 4 1 1 0 2 4 4 4 3 2 3 5 3 352 341 327 304 293 290 281 266 258 256 253 250 243 237 238 241 242 244 243 241 237 235 235 231
118 238 288 318 165 166 192 190 134 132 148 123 129 154 210 178 117 115 149 78 96 115 25 317 162 74 88 132 103 103 93 76 64 49 52 48 32 29 24 19 21 19 19 20 19 17 11 6 4 2 2 1 360 359 359 360 2 2 2 4 7 8 4 355 345 324 306 297 293 289 281 273 266 261 254 245 240 241 244 247 246 245 243 238 233 229
140 222 302 340 163 243 225 126 78 37 131 125 164 185 175 80 91 105 117 32 50 112 265 309 151 161 160 181 154 123 102 78 59 43 45 40 32 29 21 17 16 13 14 14 15 14 7 2 0 0 2 2 2 359 355 356 0 3 5 7 6 5 3 360 356 344 323 308 299 295 290 283 276 269 263 256 249 246 244 245 245 241 240 237 231 227
122 135 295 316 182 304 359 80 66 353 25 122 156 153 110 114 123 86 121 136 100 119 183 30 26 232 185 212 175 144 121 102 82 60 56 48 39 31 18 16 13 10 11 9 10 8 2 1 359 359 2 1 1 1 357 357 0 4 8 9 7 4 2 1 1 355 341 328 314 300 291 288 285 279 273 267 261 254 245 241 239 236 236 237 232 227
97 109 270 308 329 319 5 56 130 317 10 52 91 73 47 128 152 143 141 147 136 143 161 128 191 247 198 271 202 146 130 123 113 87 74 62 50 39 23 17 10 9 10 6 5 2 0 2 359 359 2 360 359 1 1 2 2 3 5 7 7 6 5 4 4 1 352 345 336 316 300 293 288 284 282 278 270 260 251 245 240 238 241 240 232 226
60 92 185 311 340 19 17 14 190 187 118 71 83 99 54 69 112 133 89 69 121 138 146 141 193 240 305 321 149 129 124 125 123 106 87 72 58 45 29 20 13 9 7 2 2 0 1 2 360 359 1 1 1 3 4 5 4 3 3 4 4 3 3 3 3 3 357 350 345 330 311 299 292 287 286 282 273 265 258 252 246 241 242 241 230 223
108 103 116 339 9 45 328 295 258 216 171 143 135 160 153 121 119 117 101 343 93 124 158 152 175 224 5 6 89 116 116 117 115 104 89 74 60 47 30 22 16 8 5 3 2 2 3 3 360 357 359 2 5 4 5 5 4 4 4 3 2 1 1 1 1 360 356 351 345 334 319 304 293 291 290 283 275 270 261 253 248 243 241 240 229 221
142 97 89 59 60 168 264 303 340 342 113 102 90 129 132 117 118 124 167 204 92 93 140 111 128 187 33 31 76 101 107 113 107 98 92 77 60 47 30 22 16 7 4 3 4 7 7 6 2 360 0 4 7 6 5 6 4 3 3 2 2 1 1 0 360 359 356 352 344 335 326 312 299 298 294 282 274 267 257 248 246 245 244 243 234 223
100 82 90 60 325 304 303 322 340 11 68 70 46 38 78 89 114 135 165 162 121 134 132 85 110 181 79 58 78 89 97 101 89 80 81 77 61 46 32 24 15 6 4 2 5 9 9 8 8 7 6 5 7 7 5 5 5 4 4 3 2 2 2 2 2 2 1 356 348 340 335 325 318 315 305 291 278 265 254 248 245 243 243 242 237 227
114 103 103 90 21 353 346 344 350 10 40 64 35 350 4 71 90 112 117 83 103 171 145 116 147 169 117 101 89 91 92 81 74 71 73 74 64 48 37 28 17 11 6 2 5 9 8 8 9 9 9 7 7 6 5 5 5 4 5 5 4 3 3 5 5 5 5 2 355 347 340 335 332 329 318 303 291 275 258 249 245 241 238 235 234 231
108 114 111 122 137 150 168 252 246 151 43 50 31 0 8 47 75 119 122 80 113 175 106 113 149 137 123 117 102 98 91 79 77 74 69 68 65 52 43 34 21 16 9 3 6 5 2 4 6 8 10 9 8 7 6 6 5 5 6 7 8 7 6 7 8 7 7 6 2 354 344 338 336 332 322 305 295 284 261 245 240 239 236 231 229 230
98 78 64 101 125 162 183 203 212 138 88 51 359 3 13 14 31 98 108 107 154 143 43 92 152 137 133 130 114 100 91 88 84 73 65 64 60 50 44 42 32 24 13 5 3 358 356 358 2 6 8 9 10 10 9 9 8 7 6 7 9 10 9 9 9 9 9 7 5 1 353 345 336 329 320 306 294 284 266 246 236 235 234 229 225 222
98 60 28 61 64 57 110 96 65 76 81 73 44 19 22 27 39 72 88 110 142 127 70 179 143 132 136 133 118 109 100 89 74 67 65 60 55 49 44 43 37 28 15 3 358 354 356 358 360 3 5 7 9 11 12 12 11 10 9 8 9 10 10 10 10 11 10 8 5 3 358 352 341 328 317 308 296 281 267 252 241 237 233 228 220 213
100 55 19 71 65 45 46 64 77 85 82 69 62 47 35 40 52 70 78 63 98 133 162 153 133 122 127 124 112 104 94 82 73 69 67 60 54 51 45 40 32 24 14 5 358 355 358 360 0 3 4 5 7 9 10 11 11 11 11 10 10 11 11 12 12 13 12 9 5 1 359 356 350 339 323 310 299 282 268 257 248 241 235 229 220 212
98 66 44 84 75 50 34 38 71 88 88 71 61 57 57 61 65 72 78 78 74 85 119 124 114 101 102 110 103 93 84 81 78 71 63 58 53 49 45 38 28 21 18 9 358 356 1 3 4 4 4 5 5 6 7 8 9 10 11 11 11 12 13 14 15 15 13 10 6 2 0 0 358 351 339 322 306 288 271 259 251 241 234 230 224 218
80 123 170 78 75 51 34 47 66 79 86 74 56 52 62 67 67 68 77 84 79 77 93 103 101 93 88 96 94 86 79 79 74 65 62 58 51 49 47 39 31 25 21 9 358 360 4 5 5 5 5 4 4 5 7 6 8 10 11 11 12 13 16 18 17 16 14 11 7 4 3 3 2 359 351 335 315 296 276 260 250 241 232 226 224 222
74 126 162 62 84 68 53 83 85 82 82 69 46 36 45 51 60 60 53 64 105 122 118 108 105 117 122 108 90 74 72 73 65 56 55 50 46 49 46 37 31 27 20 6 359 3 4 2 2 3 4 4 5 6 7 7 9 11 12 11 13 15 18 20 19 17 15 12 10 8 6 6 4 0 355 343 323 301 280 260 246 237 229 222 220 221
86 124 138 104 99 124 173 112 77 67 74 61 31 29 39 51 76 67 38 24 72 134 136 133 140 139 133 123 105 87 78 73 62 52 44 36 39 45 41 33 24 20 15 2 357 3 2 359 1 3 5 7 8 9 10 11 12 12 12 14 17 19 20 20 19 17 16 14 12 10 8 8 7 2 356 350 334 306 282 261 241 231 224 217 214 215
80 107 126 110 101 145 190 353 30 50 84 58 331 329 24 74 87 81 56 37 45 83 105 102 113 125 126 123 117 109 95 81 69 57 42 32 37 41 36 27 17 11 5 358 358 4 3 3 6 9 12 13 13 14 17 18 17 16 17 19 20 22 22 21 19 18 17 16 14 12 10 10 10 6 1 359 352 331 306 278 244 227 220 212 206 205
102 92 101 81 89 135 152 46 66 149 213 15 21 67 98 103 98 88 71 57 68 93 102 102 109 119 117 114 113 110 103 93 78 59 43 33 33 41 39 25 13 10 2 356 358 3 5 8 10 11 14 16 17 20 23 23 21 22 22 21 21 21 22 22 20 19 18 17 15 14 12 11 11 11 9 8 6 0 354 340 274 227 215 207 201 199
118 110 100 71 70 116 92 53 112 166 161 87 81 89 105 112 106 89 68 51 60 93 107 109 113 116 115 117 115 111 111 102 79 57 40 29 26 38 46 31 12 4 357 360 3 5 10 14 14 14 16 19 23 26 26 25 25 24 24 23 22 21 21 21 20 19 18 17 16 15 14 13 13 14 16 17 17 17 18 17 12 343 210 200 197 197
111 122 110 63 43 121 103 81 105 127 170 159 137 133 129 131 155 116 83 63 65 102 120 119 122 125 124 122 123 129 132 109 77 44 20 18 20 24 33 37 27 13 8 15 20 22 24 23 21 21 23 26 29 31 29 28 28 27 25 24 22 21 20 20 18 17 18 18 19 19 18 18 17 17 21 24 24 26 30 30 29 29 38 138 178 185
70 113 136 118 77 102 101 102 116 143 213 182 145 161 145 150 201 175 110 91 98 131 137 132 134 138 135 135 145 157 149 97 74 35 2 8 15 18 23 29 28 23 19 21 24 27 28 27 27 28 31 33 33 32 31 29 29 28 26 23 22 20 20 19 17 17 19 20 23 25 24 23 22 23 26 29 29 32 38 41 40 40 44 49 59 103
52 53 94 101 97 109 109 119 156 189 222 166 152 206 281 262 214 179 122 126 149 153 150 141 141 148 150 153 158 159 129 97 115 104 339 348 12 22 23 23 23 23 26 27 28 28 28 31 35 37 37 34 30 28 28 28 29 28 25 23 22 21 19 19 19 19 21 23 27 31 30 29 28 29 31 34 34 35 41 49 51 48 48 48 46 51
40 24 51 90 111 116 105 108 161 187 213 159 170 258 288 294 159 152 179 200 167 162 161 151 150 157 159 152 140 105 68 138 149 159 296 351 35 36 32 26 22 23 27 30 31 33 34 35 35 34 32 27 23 22 23 25 29 27 23 22 23 21 19 21 22 22 23 26 30 34 34 34 34 33 35 38 40 40 42 50 58 59 54 49 45 45
26 18 53 107 110 91 92 104 133 268 214 178 237 289 290 268 135 164 205 185 148 153 160 153 152 153 147 137 117 76 49 95 117 126 97 65 57 39 33 35 38 37 34 30 28 28 29 27 25 23 22 22 22 22 22 23 25 25 23 23 22 20 22 24 25 24 25 27 30 34 37 38 38 39 39 42 46 47 45 47 55 62 63 56 46 41
52 39 30 78 93 81 88 100 106 266 225 82 307 296 288 186 183 196 179 133 131 141 140 137 138 131 114 103 105 109 106 97 102 108 87 73 65 41 33 35 39 37 31 26 23 19 15 12 11 12 14 17 20 22 22 24 24 24 24 23 22 23 27 28 28 27 27 27 30 34 39 42 43 44 46 47 48 49 48 47 48 54 61 63 57 47
85 94 60 95 111 85 67 82 129 210 208 13 325 289 307 154 175 155 119 100 109 122 121 119 122 121 114 110 112 117 114 106 104 105 94 81 67 49 39 29 20 16 13 10 6 1 356 354 356 1 6 10 15 21 24 25 26 26 24 22 24 30 33 32 31 31 30 30 31 34 39 43 47 50 51 51 50 50 50 50 49 48 49 56 59 56
52 110 173 196 183 131 123 156 188 225 306 326 289 196 95 93 130 131 120 111 103 109 116 117 119 126 126 124 124 123 119 117 118 116 108 86 51 35 27 17 10 6 1 354 348 344 342 342 348 358 6 8 13 21 27 27 27 25 23 23 30 36 37 35 34 34 35 34 34 36 40 43 48 54 55 54 51 49 48 49 49 48 46 46 50 52
49 130 137 129 121 115 122 158 157 82 41 40 64 98 95 90 93 105 113 116 113 114 121 122 125 130 129 128 130 129 124 123 119 109 89 60 35 20 11 3 356 352 347 344 346 346 346 349 356 3 9 11 16 25 30 29 28 26 24 28 36 38 38 36 34 35 39 39 38 39 42 44 47 52 57 58 56 53 52 50 49 49 48 48 48 47
127 123 107 102 118 106 67 62 85 82 70 68 68 72 84 88 92 101 106 110 113 117 119 124 129 133 130 128 125 117 113 115 106 90 71 51 26 2 354 347 342 345 348 352 359 6 14 23 23 15 11 13 19 29 35 35 32 29 28 33 39 39 37 35 34 34 39 42 42 41 42 46 50 52 55 58 61 62 62 61 60 58 55 53 53 51
147 91 89 107 138 132 67 67 83 82 83 85 79 74 73 75 77 89 100 108 112 111 112 116 119 119 119 120 121 116 113 113 104 89 69 46 6 342 341 340 341 350 360 4 12 25 37 41 35 24 18 17 19 29 40 39 35 31 29 31 36 37 36 36 36 35 36 41 43 41 42 47 52 55 57 57 59 62 63 65 67 67 64 62 60 58
128 101 98 98 102 101 105 112 100 84 83 86 86 89 88 83 85 87 92 100 101 101 106 110 113 114 111 111 116 116 105 98 105 107 78 11 339 333 337 341 347 359 13 22 28 35 40 40 35 30 26 23 23 29 41 42 36 29 27 27 29 32 35 37 38 37 36 37 40 40 42 45 49 54 58 58 58 58 59 60 62 63 64 68 70 68
89 95 113 113 104 96 106 123 119 99 83 74 84 100 105 103 105 102 94 98 102 102 102 101 102 108 114 117 119 116 107 105 116 120 95 330 328 332 340 347 355 7 20 26 31 36 38 38 37 35 32 30 29 33 40 43 36 27 24 25 25 25 30 34 35 36 36 36 37 39 42 45 48 52 57 61 62 61 59 57 57 59 59 60 65 71
79 100 130 127 124 139 154 151 143 120 106 110 121 118 115 115 116 110 104 102 104 107 106 97 91 96 106 119 127 126 127 138 136 129 202 298 322 337 343 349 359 15 24 26 34 41 41 39 39 37 35 33 34 36 36 35 29 21 17 18 19 20 24 27 29 32 34 34 34 37 42 47 51 53 56 62 67 68 66 63 59 58 60 61 62 63
139 156 163 142 130 159 157 150 139 116 119 137 139 127 128 129 118 113 116 117 119 124 123 115 107 103 103 117 133 133 135 147 154 164 239 298 335 349 352 352 360 13 20 27 38 40 38 37 38 37 35 34 35 37 36 29 20 11 7 7 11 14 18 22 24 28 33 33 31 32 36 45 55 57 58 63 67 68 69 69 67 63 62 63 62 61